UmKA 1 (RS40S)
1 57172U 23091G   26024.44304301  .00011958  00000-0  57543-3 0  9991
2 57172  97.5269  83.7275 0011941 259.7267 100.2621 15.18868149142176
CubeBel-2 (EU11S)
1 57175U 23091K   26024.44612197  .00020830  00000-0  82616-3 0  9997
2 57175  97.5266  86.6201 0009375 260.7016  99.3161 15.25362255142362
RS-38S
1 57189U 23091Z   26024.54063515  .00027305  00000-0  91208-3 0  9998
2 57189  97.5288  91.5396 0007394 215.8278 144.2468 15.30973167142671
SONATE-2
1 59112U 24043Q   26024.48977787  .00045762  00000-0  87557-3 0  9991
2 59112  97.5350 167.4301 0008565  13.3872 346.7604 15.47897157105582
MO-122
1 60209U 24125G   26024.32832779  .00055800  00000-0  10034-2 0  9994
2 60209  97.2494 239.8197 0014869  31.9752 328.2399 15.49548148 87198
GRBBeta
1 60237U 24128C   26024.27363901  .00008073  00000-0  55828-3 0  9999
2 60237  61.9921   0.7037 0054582 104.9257 255.7887 15.05237735 84593
Curium One
1 60242U 24128H   26024.39459733  .00015453  00000-0  93025-3 0  9998
2 60242  61.9812 354.0990 0054532 101.5997 259.1226 15.09784374 84720
ROBUSTA-3A
1 60243U 24128J   26024.48384859  .00015389  00000-0  94383-3 0  9991
2 60243  61.9888 355.5156 0055015  98.9006 261.8322 15.09089675 84719
CatSat
1 60246U 24125J   26024.49548970  .00062099  00000-0  13167-2 0  9998
2 60246  97.2266 236.5194 0031131 354.4796   5.6105 15.44332380 85114
HYPERVIEW-1G (RS66S)
1 61772U 24199AP  26024.54820480  .00075284  00000-0  12299-2 0  9994
2 61772  97.3156 259.6396 0011715  82.6127 277.6456 15.52223436112247
AO-123
1 61781U 24199AY  26024.57248627  .00016567  00000-0  51908-3 0  9994
2 61781  97.3212 254.5769 0016021 100.9574 259.3472 15.33029579111901
HADES-R (SO-124)
1 62690U 25009CK  26023.22119842  .00854052  00000-0  32465-2 0  9997
2 62690  97.3731 113.0602 0006522 292.9143  67.1439 15.85521898 57287
HYDRA-T
1 62692U 25009CM  26024.22077362  .01588575  14661-2  32804-2 0  9992
2 62692  97.3675 114.6197 0008273 296.4191  63.6237 15.99524872 57477
JINJUSat 1B
1 63210U 25052A   26024.23544323  .00027545  00000-0  99729-3 0  9998
2 63210  97.4170 281.1710 0001861 211.0661 149.0469 15.28365349 48073
NUSHSAT 1
1 63211U 25052B   26024.26316840  .00032910  00000-0  11422-2 0  9998
2 63211  97.4152 281.3864 0001576 221.3347 138.7774 15.29713808 48098
TEVEL2-4
1 63213U 25052D   26024.21904848  .00029208  00000-0  10400-2 0  9997
2 63213  97.4075 280.8019 0000686 272.5977  87.5184 15.28901452 48075
TEVEL2-5
1 63214U 25052E   26024.22685145  .00030040  00000-0  10725-2 0  9991
2 63214  97.4070 280.7907 0000626 264.4873  95.6295 15.28806305 48079
TEVEL2-6
1 63215U 25052F   26024.23543852  .00030245  00000-0  10813-2 0  9996
2 63215  97.4075 280.7863 0000735 270.1172  89.9983 15.28762577 48075
TEVEL2-1
1 63217U 25052H   26024.48413463  .00030593  00000-0  11055-2 0  9994
2 63217  97.4048 280.8079 0001089 309.4971  50.6172 15.28407164 48100
TEVEL2-3
1 63218U 25052J   26024.22075873  .00028161  00000-0  10178-2 0  9999
2 63218  97.4053 280.5541 0001112 314.9167  45.1982 15.28419820 48068
TEVEL2-2
1 63219U 25052K   26024.22296631  .00028486  00000-0  10302-2 0  9996
2 63219  97.4047 280.5493 0001397 326.8373  33.2779 15.28395588 48060
TEVEL2-9
1 63237U 25052AD  26024.42552859  .00028456  00000-0  10792-2 0  9995
2 63237  97.4112 280.3929 0005147 305.1666  54.9090 15.26815240 48052
TEVEL2-7
1 63238U 25052AE  26024.50961809  .00028803  00000-0  10982-2 0  9991
2 63238  97.4118 280.4408 0005302 304.9454  55.1287 15.26636951 48069
TEVEL2-8
1 63239U 25052AF  26024.25377560  .00028019  00000-0  10697-2 0  9991
2 63239  97.4115 280.1693 0005296 307.1744  52.9011 15.26598340 48024
HYDRA-W
1 63490U 25052BL  26023.93166248  .00160866  00000-0  28934-2 0  9993
2 63490  97.4016 283.5341 0003358 303.0128  57.0800 15.49245323 48238
HADES-ICM (SO-125)
1 63492U 25052BN  26024.18705068  .00129301  00000-0  25911-2 0  9993
2 63492  97.4025 283.3745 0004404 304.3336  55.7496 15.46234486 48246
Dragonfly
1 65729U 98067XH  26023.98538274  .01040617  55703-3  18397-2 0  9990
2 65729  51.6137 276.0104 0007550 182.6666 177.4305 16.01353071 19853
RSP-03
1 65732U 98067XL  26024.41936502  .00420747  00000-0  15920-2 0  9990
2 65732  51.6214 276.7255 0005436 158.1520 201.9716 15.86011293 19897
GHS-01
1 65733U 98067XM  26020.92375749  .09795873  12158-4  14287-2 0  9993
2 65733  51.6117 289.2886 0004779 208.5099 151.5664 16.33783644 19418
BOTAN
1 65942U 98067XP  26023.77288683  .00261853  00000-0  16387-2 0  9990
2 65942  51.6232 285.2024 0005287 160.5052 199.6150 15.75484980 16460
CEVROSAT1
1 66309U 25248S   26024.10508323  .00008599  00000-0  41982-3 0  9999
2 66309  45.4042 173.2904 0003659 296.4062  63.6448 15.18715760 12592
SPIRONE
1 66657U 25274H   26024.24693195  .00004212  00000-0  41248-3 0  9994
2 66657  97.7418 315.7373 0013429 127.7395 232.5043 14.92754337  8743
K-HERO
1 66660U 25274L   26024.36134612  .00005002  00000-0  48252-3 0  9995
2 66660  97.7427 315.9001 0015391 132.1251 228.1280 14.93241021  8766
SNUGLITE-III DURI
1 66661U 25274M   26024.28914772  .00004535  00000-0  43671-3 0  9990
2 66661  97.7423 315.8387 0015998 133.6513 226.6036 14.93352369  8758
SilverSat
1 66909U 98067XV  26024.01243782  .00145933  00000-0  18045-2 0  9996
2 66909  51.6295 291.3241 0003504 124.3272 235.8052 15.59109704  8199
SAKHACUBE-CHOLBON
1 67290U 25313AU  26024.44621899  .00017912  00000-0  79108-3 0  9993
2 67290  97.4086 101.4951 0010804 136.8246 223.3839 15.21739546  4090
QMR-KWT
1 67291U 25313AV  26024.44515578  .00024841  00000-0  10899-2 0  9990
2 67291  97.4086 101.4966 0010602 137.0722 223.1343 15.21898214  4091
IO-86
1 40931U          25360.30710720  .00000000  00000-0  12800-3 0    00
2 40931   6.0006 332.5373 0012733 338.8432   8.1437 14.79075515    01
